This is the latest recevied weather packets stored in our database for station/object CE3MXM-12. If no packets are shown the sender has not sent any weather packets the latest 10 day(s).
| Time | Temp. | Humidity | Pressure | Rain* | Wind** | Luminosity | Snow |
|---|---|---|---|---|---|---|---|
| 1777884568 | 14.44° C | 60% | 1014.8 hPa | - | - | - | - |
| 1777884268 | 14.44° C | 60% | 1015 hPa | - | - | - | - |
| 1777883968 | 15° C | 64% | 1015 hPa | - | - | - | - |
| 1777883668 | 15° C | 68% | 1014.8 hPa | - | - | - | - |
| 1777883368 | 15° C | 67% | 1015 hPa | - | - | - | - |
| 1777883068 | 14.44° C | 70% | 1015 hPa | - | - | - | - |
| 1777882772 | 14.44° C | 78% | 1014.9 hPa | - | - | - | - |
| 1777882467 | 14.44° C | 81% | 1015.1 hPa | - | - | - | - |
| 1777882167 | 14.44° C | 83% | 1015.2 hPa | - | - | - | - |
| 1777881867 | 14.44° C | 85% | 1015.2 hPa | - | - | - | - |
| 1777881567 | 13.89° C | 86% | 1015 hPa | - | - | - | - |
| 1777881267 | 14.44° C | 87% | 1015.1 hPa | - | - | - | - |
| 1777880967 | 14.44° C | 87% | 1015.3 hPa | - | - | - | - |
| 1777880667 | 14.44° C | 87% | 1015.2 hPa | - | - | - | - |
| 1777880367 | 14.44° C | 87% | 1015.1 hPa | - | - | - | - |
| 1777880067 | 14.44° C | 87% | 1015.3 hPa | - | - | - | - |
| 1777879767 | 14.44° C | 88% | 1015.3 hPa | - | - | - | - |
| 1777879467 | 14.44° C | 87% | 1015.4 hPa | - | - | - | - |
| 1777879167 | 14.44° C | 87% | 1015.3 hPa | - | - | - | - |
| 1777878866 | 14.44° C | 87% | 1015.3 hPa | - | - | - | - |
| 1777878566 | 15° C | 87% | 1015.3 hPa | - | - | - | - |
| 1777878266 | 14.44° C | 87% | 1015.4 hPa | - | - | - | - |
| 1777877966 | 15° C | 86% | 1015.4 hPa | - | - | - | - |
| 1777877666 | 15° C | 86% | 1015.4 hPa | - | - | - | - |
| 1777877366 | 15° C | 86% | 1015.5 hPa | - | - | - | - |
* Rain since midnight (hover to see other rain measurements)
** Current wind speed in m/s (hover to see current wind gust speed)